Regional Weather Roundup
Issued by NWS

Home | Current Version | Previous Version | Graphics & Text | Print | Product List | Glossary On
Versions: 1 2 3 4 5 6 7 8 9 10 11 12 13 14 15 16 17 18 19 20 21 22 23 24 25 26 27 28 29 30 31 32 33 34 35 36 37 38 39 40 41 42 43 44 45 46 47 48 49 50
000
ASUS44 KMEG 231810
RWRTN
TENNESSEE HOURLY STATE WEATHER ROUNDUP
NATIONAL WEATHER SERVICE MEMPHIS TN
1200 PM CST TUE JAN 23 2018

TNZ002-004-019-021-049-052-054-088>092-231900-
WEST TENNESSEE

CITY           SKY/WX    TMP DP  RH WIND       PRES   REMARKS
MEMPHIS INTL   PTSUNNY   46  30  53 NW14G23   30.14S
NWS MEMPHIS      N/A     42 N/A N/A MISG        N/A
JACKSON        CLOUDY    42  29  59 NW13      30.12R
DYERSBURG      CLOUDY    39  28  65 NW15G21   30.14R WCI  31
SOMERVILLE     CLOUDY    43  28  56 NW10      30.12R
COVINGTON      CLOUDY    41  30  65 NW15      30.15R
UNION CITY     CLOUDY    39  30  70 W15       30.10S WCI  31
BOLIVAR        CLOUDY    43  28  56 W8G17     30.12R
PARIS          CLOUDY    39  30  70 W8G17     30.07R WCI  34
HUNTINGDON     CLOUDY    41  30  65 W8G15     30.08S
LEXINGTON      CLOUDY    41  30  65 W10G17    30.09S
SELMER         CLOUDY    41  28  60 W9G18     30.10S
SAVANNAH       CLOUDY    43  30  61 W12       30.10S
$$

TNZ008-025-027-028-033-062-065-066-231900-
NORTH MIDDLE TENNESSEE

CITY           SKY/WX    TMP DP  RH WIND       PRES   REMARKS
NASHVILLE      CLOUDY    44  29  55 W14G21    30.04R
PORTLAND       CLOUDY    43  32  65 W8        30.01R
CLARKSVILLE    CLOUDY    41  29  62 W13       30.04R
SMYRNA         CLOUDY    46  30  53 W9        30.05R
COOKEVILLE     CLOUDY    46  30  53 SW8G14    29.98S
GALLATIN       CLOUDY    45  30  57 W9G17     30.04S
CROSSVILLE     CLOUDY    43  28  55 W17       29.96S
$$

TNZ061-075-076-078-094-096-097-231900-
SOUTH MIDDLE TENNESSEE

CITY           SKY/WX    TMP DP  RH WIND       PRES   REMARKS
FAYETTEVILLE   CLOUDY    46  30  53 W10G16    30.03S
TULLAHOMA      CLOUDY    45  30  57 W12       30.02R
WINCHESTER     CLOUDY    45  30  57 W8        30.03R
MCMINNVILLE    CLOUDY    45  30  57 W14       30.00S
COLUMBIA       CLOUDY    43  28  56 W9G16     30.03F
SHELBYVILLE    CLOUDY    45  30  57 W14       30.04R
$$

TNZ017-018-042-046-047-231900-
NORTHEAST TENNESSEE

CITY           SKY/WX    TMP DP  RH WIND       PRES   REMARKS
TRI CITIES     FAIR      50  30  46 W14G23    29.90F
ELIZABETHTON   PTSUNNY   50  28  43 W17       29.89F
$$

TNZ012-013-036-069-073-074-231900-
CENTRAL EAST TENNESSEE

CITY           SKY/WX    TMP DP  RH WIND       PRES   REMARKS
KNOXVILLE      PTSUNNY   50  31  48 SW14      29.95F
OAK RIDGE      PTSUNNY   49  30  48 W13G20    29.97F
DOWNTOWN KNOXV MOSUNNY   50  30  46 W12G18    29.96F
GATLINBURG     SUNNY     52  28  40 W14G22    29.94F
MORRISTOWN     MOSUNNY   48  28  46 W13G20    29.93S
JACKSBORO      CLOUDY    48  28  46 SW9       29.98S
$$

TNZ083-085-099-231900-
SOUTHEAST TENNESSEE

CITY           SKY/WX    TMP DP  RH WIND       PRES   REMARKS
CHATTANOOGA    FAIR      51  28  41 W9        30.00F
DAYTON         MOCLDY    50  34  53 SW9G16    29.98F
$$

SKY/WX REPORTED AS FAIR MEANS FEW OR NO CLOUDS BELOW
12 THOUSAND FEET.




USA.gov is the U.S. government's official web portal to all federal, state and local government web resources and services.